FW4267 Weather Reports


Display with metric or nautical units.
time (UTC)temp
F
wind
direction
speed
MPH
gust
MPH
rain 1hr
in
rain 24hr
in
rain mn
in
humidity
%
barometer
mb
20260831133531 77 87 0.0 2.0 0.00 0.00 0.00 57 1021.8
20260831133029 77 334 0.0 2.0 0.00 0.00 0.00 58 1021.8
20260831132527 76 321 0.0 2.0 0.00 0.00 0.00 58 1021.9
20260831132029 76 272 0.0 3.0 0.00 0.00 0.00 58 1022.0
20260831131525 76 282 2.0 3.0 0.00 0.00 0.00 59 1022.0
20260831131332 75 257 0.0 4.0 0.00 0.00 0.00 59 1022.0
20260831130525 76 295 1.0 5.0 0.00 0.00 0.00 58 1022.0
20260831130028 76 298 2.0 5.0 0.00 0.00 0.00 59 1022.1
20260831125525 75 296 0.0 4.0 0.00 0.00 0.00 60 1022.0
20260831125027 75 278 1.0 6.0 0.00 0.00 0.00 61 1022.0
20260831124836 75 310 2.0 6.0 0.00 0.00 0.00 59 1022.1
20260831124026 75 314 0.0 4.0 0.00 0.00 0.00 62 1022.1
20260831123525 75 303 0.0 3.0 0.00 0.00 0.00 62 1022.0
20260831123025 75 39 1.0 3.0 0.00 0.00 0.00 60 1022.1
20260831122538 75 285 0.0 4.0 0.00 0.00 0.00 62 1022.0
20260831122024 75 303 1.0 4.0 0.00 0.00 0.00 61 1022.1
20260831121526 75 321 1.0 5.0 0.00 0.00 0.00 61 1022.1
20260831121028 75 295 2.0 6.0 0.00 0.00 0.00 60 1022.1
20260831120832 74 298 3.0 6.0 0.00 0.00 0.00 60 1022.1
20260831120025 74 269 0.0 4.0 0.00 0.00 0.00 62 1022.1
20260831115527 74 350 1.0 4.0 0.00 0.00 0.00 63 1022.1
20260831115024 74 288 1.0 4.0 0.00 0.00 0.00 63 1022.1
20260831114524 74 281 1.0 2.0 0.00 0.00 0.00 62 1022.1
20260831114036 74 348 0.0 3.0 0.00 0.00 0.00 63 1022.2
20260831113525 73 298 1.0 3.0 0.00 0.00 0.00 64 1022.1
20260831113024 73 305 2.0 3.0 0.00 0.00 0.00 64 1022.2
20260831112527 73 316 1.0 3.0 0.00 0.00 0.00 65 1022.2
20260831112335 73 276 1.0 3.0 0.00 0.00 0.00 66 1022.2
20260831111525 73 268 0.0 4.0 0.00 0.00 0.00 66 1022.2
20260831111025 73 302 1.0 4.0 0.00 0.00 0.00 67 1022.2
20260831110522 72 306 0.0 4.0 0.00 0.00 0.00 67 1022.2
20260831110023 73 321 1.0 4.0 0.00 0.00 0.00 67 1022.2
20260831105524 73 288 0.0 4.0 0.00 0.00 0.00 68 1022.2
20260831105153 72 309 0.0 5.0 0.00 0.00 0.00 67 1022.4
20260831105120 72 299 0.0 4.0 0.00 0.00 0.00 67 1022.3
20260831104023 72 305 2.0 5.0 0.00 0.00 0.00 67 1022.3
20260831103524 72 293 0.0 4.0 0.00 0.00 0.00 68 1022.4
20260831103025 72 302 1.0 4.0 0.00 0.00 0.00 68 1022.3
20260831102522 72 281 0.0 4.0 0.00 0.00 0.00 68 1022.3
20260831102022 72 326 0.0 5.0 0.00 0.00 0.00 69 1022.3
20260831101842 72 275 1.0 5.0 0.00 0.00 0.00 70 1022.3
20260831101023 72 278 0.0 5.0 0.00 0.00 0.00 71 1022.3
20260831100524 71 282 1.0 5.0 0.00 0.00 0.00 71 1022.3
20260831100022 71 295 0.0 4.0 0.00 0.00 0.00 71 1022.3
20260831095521 71 292 2.0 4.0 0.00 0.00 0.00 71 1022.3
20260831095024 71 316 2.0 4.0 0.00 0.00 0.00 71 1022.2
20260831094521 71 72 0.0 2.0 0.00 0.00 0.00 72 1022.2
20260831094024 71 310 0.0 2.0 0.00 0.00 0.00 72 1022.3
20260831093521 71 310 0.0 3.0 0.00 0.00 0.00 73 1022.3
20260831093021 71 309 0.0 4.0 0.00 0.00 0.00 72 1022.3
20260831092833 71 275 2.0 4.0 0.00 0.00 0.00 73 1022.3
20260831092020 71 279 0.0 3.0 0.00 0.00 0.00 74 1022.3
20260831091522 70 293 1.0 5.0 0.00 0.00 0.00 74 1022.3
20260831091021 70 278 1.0 6.0 0.00 0.00 0.00 74 1022.3
20260831090522 70 276 1.0 6.0 0.00 0.00 0.00 74 1022.3
20260831090020 70 292 0.0 3.0 0.00 0.00 0.00 74 1022.3
20260831085521 70 265 0.0 3.0 0.00 0.00 0.00 75 1022.2
20260831085021 70 313 0.0 3.0 0.00 0.00 0.00 76 1022.1
20260831084518 70 288 0.0 2.0 0.00 0.00 0.00 76 1022.1
20260831084022 70 262 0.0 4.0 0.00 0.00 0.00 77 1022.1
20260831083520 69 289 0.0 4.0 0.00 0.00 0.00 77 1022.0
20260831083022 69 268 2.0 5.0 0.00 0.00 0.00 76 1022.1
20260831082519 69 281 1.0 5.0 0.00 0.00 0.00 77 1022.1
20260831082023 69 217 1.0 4.0 0.00 0.00 0.00 76 1022.0
20260831081520 69 290 1.0 4.0 0.00 0.00 0.00 78 1022.0
20260831081020 69 285 1.0 3.0 0.00 0.00 0.00 78 1021.9
20260831080831 69 299 0.0 4.0 0.00 0.00 0.00 79 1021.9
20260831080020 69 279 0.0 4.0 0.00 0.00 0.00 79 1022.0
20260831075519 69 268 0.0 2.0 0.00 0.00 0.00 80 1021.9
20260831075334 68 268 0.0 3.0 0.00 0.00 0.00 80 1021.8
20260831074521 68 285 1.0 3.0 0.00 0.00 0.00 80 1021.8
20260831074018 68 285 0.0 4.0 0.00 0.00 0.00 80 1021.8
20260831073518 68 283 0.0 4.0 0.00 0.00 0.00 80 1021.7
20260831073326 68 293 0.0 2.0 0.00 0.00 0.00 80 1021.8
20260831072517 68 296 1.0 2.0 0.00 0.00 0.00 80 1021.7
20260831072017 68 279 0.0 1.0 0.00 0.00 0.00 80 1021.7
20260831071517 68 274 0.0 1.0 0.00 0.00 0.00 81 1021.6
20260831071018 68 271 0.0 1.0 0.00 0.00 0.00 81 1021.6
20260831070518 67 271 0.0 2.0 0.00 0.00 0.00 81 1021.5
20260831070018 68 212 0.0 2.0 0.00 0.00 0.00 81 1021.5
20260831065518 67 282 0.0 1.0 0.00 0.00 0.00 81 1021.4
20260831065141 67 307 0.0 1.0 0.00 0.00 0.00 81 1021.4
20260831065111 67 307 0.0 1.0 0.00 0.00 0.00 81 1021.4
20260831064014 67 307 0.0 1.0 0.00 0.00 0.00 80 1021.5
20260831063515 67 278 0.0 1.0 0.00 0.00 0.00 80 1021.3
20260831063017 67 278 0.0 1.0 0.00 0.00 0.00 80 1021.3
20260831062520 67 278 0.0 1.0 0.00 0.00 0.00 80 1021.4
20260831062021 67 278 0.0 1.0 0.00 0.00 0.00 80 1021.3
20260831061518 67 278 0.0 1.0 0.00 0.00 0.00 80 1021.2
20260831061029 67 248 0.0 1.0 0.00 0.00 0.00 80 1021.3
20260831060516 67 290 0.0 0.0 0.00 0.00 0.00 80 1021.2
20260831060017 67 290 0.0 0.0 0.00 0.00 0.00 80 1021.2
20260831055513 66 290 0.0 0.0 0.00 0.00 0.00 80 1021.1
20260831055017 66 290 0.0 0.0 0.00 0.00 0.00 80 1021.1
20260831054516 66 290 0.0 0.0 0.00 0.00 0.00 80 1021.0
20260831054031 66 290 0.0 1.0 0.00 0.00 0.00 80 1021.1
20260831053515 66 290 0.0 1.0 0.00 0.00 0.00 80 1021.1
20260831053016 66 290 0.0 1.0 0.00 0.00 0.00 80 1021.0
20260831052523 66 290 0.0 1.0 0.00 0.00 0.00 80 1020.9
20260831052016 66 290 0.0 1.0 0.00 0.00 0.00 80 1020.9
20260831051828 66 290 0.0 1.0 0.00 0.00 0.00 79 1020.9
20260831051015 66 292 0.0 0.0 0.00 0.00 0.00 79 1020.9
20260831050515 66 292 0.0 0.0 0.00 0.00 0.00 79 1020.9
20260831050111 67 292 0.0 0.0 0.00 0.00 0.00 79 1020.8
20260831045018 67 292 0.0 0.0 0.00 0.00 0.00 79 1020.8
20260831044515 67 292 0.0 3.0 0.00 0.00 0.00 79 1020.7
20260831044017 67 290 0.0 3.0 0.00 0.00 0.00 79 1020.7
20260831043514 67 293 0.0 1.0 0.00 0.00 0.00 79 1020.8
20260831043014 67 251 0.0 2.0 0.00 0.00 0.00 78 1020.9
20260831042513 67 285 0.0 2.0 0.00 0.00 0.00 78 1020.8
20260831042240 67 283 0.0 3.0 0.00 0.00 0.00 78 1020.8
20260831042234 67 283 0.0 3.0 0.00 0.00 0.00 77 1020.7
20260831042148 67 276 0.0 2.0 0.00 0.00 0.00 78 1020.7
20260831040821 67 286 0.0 2.0 0.00 0.00 0.00 77 1020.8
20260831040013 67 310 0.0 4.0 0.00 0.00 0.00 77 1020.8
20260831035823 67 282 0.0 4.0 0.00 0.00 0.00 77 1020.9
20260831035013 67 302 0.0 3.0 0.00 0.00 0.00 77 1020.9
20260831034512 67 278 1.0 3.0 0.00 0.00 0.00 77 1020.9
20260831034013 67 302 0.0 3.0 0.00 0.00 0.00 77 1021.0
20260831033513 67 303 1.0 3.0 0.00 0.00 0.00 77 1021.0
20260831033150 68 292 1.0 4.0 0.00 0.00 0.00 78 1021.0
20260831033116 67 296 0.0 4.0 0.00 0.00 0.00 78 1020.9
20260831032012 68 309 1.0 2.0 0.00 0.00 0.00 78 1020.9
20260831031513 68 307 0.0 3.0 0.00 0.00 0.00 78 1021.0
20260831031324 68 298 0.0 3.0 0.00 0.00 0.00 79 1021.0
20260831030522 68 285 0.0 2.0 0.00 0.00 0.00 78 1020.9
20260831030011 68 295 0.0 3.0 0.00 0.00 0.00 78 1021.0
20260831025819 68 289 0.0 3.0 0.00 0.00 0.00 79 1021.0
20260831025013 68 285 0.0 2.0 0.00 0.00 0.00 79 1021.0
20260831024828 68 286 0.0 1.0 0.00 0.00 0.00 78 1021.0
20260831024139 68 303 0.0 1.0 0.00 0.00 0.00 78 1020.9
20260831024109 68 302 0.0 1.0 0.00 0.00 0.00 78 1021.0
20260831023011 68 282 0.0 1.0 0.00 0.00 0.00 79 1021.0
20260831022512 68 282 0.0 1.0 0.00 0.00 0.00 79 1020.9
20260831022011 68 282 0.0 1.0 0.00 0.00 0.00 79 1020.9
20260831021512 68 305 0.0 2.0 0.00 0.00 0.00 79 1020.9
20260831021012 68 310 0.0 2.0 0.00 0.00 0.00 79 1020.9
20260831020512 68 296 0.0 4.0 0.00 0.00 0.00 78 1020.9
20260831020010 68 286 1.0 4.0 0.00 0.00 0.00 78 1020.9
20260831015512 68 295 0.0 2.0 0.00 0.00 0.00 78 1020.9
20260831015010 69 309 0.0 3.0 0.00 0.00 0.00 78 1020.8
20260831014514 69 289 0.0 3.0 0.00 0.00 0.00 78 1020.8
20260831014011 69 292 1.0 4.0 0.00 0.00 0.00 78 1020.8
20260831013508 69 282 1.0 4.0 0.00 0.00 0.00 77 1020.9
20260831013013 69 295 2.0 3.0 0.00 0.00 0.00 78 1020.9
20260831012510 69 299 1.0 4.0 0.00 0.00 0.00 79 1020.9
20260831012320 69 296 1.0 4.0 0.00 0.00 0.00 79 1020.9
20260831011509 69 283 1.0 4.0 0.00 0.00 0.00 79 1020.9
20260831011010 69 278 0.0 1.0 0.00 0.00 0.00 79 1020.8
20260831010512 69 278 0.0 2.0 0.00 0.00 0.00 79 1020.8
20260831010011 69 278 0.0 2.0 0.00 0.00 0.00 79 1020.8
20260831005509 69 276 0.0 0.0 0.00 0.00 0.00 79 1020.8
20260831005010 69 276 0.0 0.0 0.00 0.00 0.00 79 1020.7
20260831004510 69 279 0.0 0.0 0.00 0.00 0.00 79 1020.6
20260831004009 69 279 0.0 1.0 0.00 0.00 0.00 79 1020.7
20260831003512 69 279 0.0 2.0 0.00 0.00 0.00 79 1020.7
20260831003009 69 272 0.0 2.0 0.00 0.00 0.00 78 1020.6
20260831002508 69 271 0.0 5.0 0.00 0.00 0.00 78 1020.6
20260831002009 69 292 2.0 5.0 0.00 0.00 0.00 78 1020.6
20260831001509 69 282 0.0 4.0 0.00 0.00 0.00 78 1020.6
20260831001010 69 276 0.0 4.0 0.00 0.00 0.00 78 1020.6
20260831000507 69 274 0.0 2.0 0.00 0.00 0.00 79 1020.7
20260831000012 69 272 1.0 3.0 0.00 0.00 0.00 79 1020.6
20260830235507 70 271 0.0 5.0 0.00 0.00 0.00 79 1020.7
20260830235322 70 310 0.0 5.0 0.00 0.00 0.00 79 1020.7
20260830234507 70 289 1.0 4.0 0.00 0.00 0.00 79 1020.7
20260830234009 70 314 1.0 2.0 0.00 0.00 0.00 80 1020.7
20260830233817 70 268 0.0 2.0 0.00 0.00 0.00 79 1020.7
20260830233318 70 274 1.0 2.0 0.00 0.00 0.00 79 1020.7
20260830232507 70 279 0.0 0.0 0.00 0.00 0.00 79 1020.7
20260830232006 70 279 0.0 0.0 0.00 0.00 0.00 79 1020.7
20260830231511 70 279 0.0 1.0 0.00 0.00 0.00 79 1020.8
20260830231019 70 279 0.0 2.0 0.00 0.00 0.00 79 1020.8
20260830230519 70 285 0.0 2.0 0.00 0.00 0.00 79 1020.7
20260830230007 70 266 0.0 1.0 0.00 0.00 0.00 79 1020.6
20260830225506 70 286 0.0 3.0 0.00 0.00 0.00 79 1020.6
20260830225314 70 286 0.0 3.0 0.00 0.00 0.00 79 1020.6
20260830224506 70 285 0.0 1.0 0.00 0.00 0.00 78 1020.6
20260830224005 70 286 0.0 1.0 0.00 0.00 0.00 78 1020.6
20260830223509 70 286 0.0 1.0 0.00 0.00 0.00 78 1020.5
20260830223317 70 266 0.0 1.0 0.00 0.00 0.00 78 1020.5
20260830222505 70 266 0.0 1.0 0.00 0.00 0.00 78 1020.5
20260830222006 71 248 0.0 1.0 0.00 0.00 0.00 78 1020.5
20260830221506 71 247 0.0 3.0 0.00 0.00 0.00 78 1020.3
20260830221006 71 271 0.0 3.0 0.00 0.00 0.00 78 1020.2
20260830220506 71 290 0.0 3.0 0.00 0.00 0.00 77 1020.2
20260830220005 71 285 1.0 2.0 0.00 0.00 0.00 77 1020.0
20260830215506 71 296 0.0 2.0 0.00 0.00 0.00 77 1020.0
20260830215005 71 281 0.0 4.0 0.00 0.00 0.00 77 1019.9
20260830214505 71 312 1.0 4.0 0.00 0.00 0.00 77 1019.9
20260830214004 71 283 0.0 9.0 0.00 0.00 0.00 77 1019.8
20260830213505 71 296 2.0 9.0 0.00 0.00 0.00 77 1019.8
20260830213006 71 323 1.0 9.0 0.00 0.00 0.00 76 1019.7
20260830212502 71 314 2.0 9.0 0.00 0.00 0.00 76 1019.6
20260830212003 71 281 1.0 6.0 0.00 0.00 0.00 76 1019.6
20260830211503 72 276 1.0 5.0 0.00 0.00 0.00 76 1019.5
20260830211006 72 266 0.0 7.0 0.00 0.00 0.00 76 1019.4
20260830210503 72 265 2.0 7.0 0.00 0.00 0.00 76 1019.3
20260830210004 72 274 2.0 4.0 0.00 0.00 0.00 76 1019.2
20260830205502 72 312 1.0 5.0 0.00 0.00 0.00 76 1019.0
20260830205003 72 305 1.0 7.0 0.00 0.00 0.00 75 1019.0
20260830204504 73 286 1.0 7.0 0.00 0.00 0.00 75 1018.9
20260830204001 73 265 2.0 6.0 0.00 0.00 0.00 75 1018.9
20260830203503 73 329 1.0 4.0 0.00 0.00 0.00 75 1018.8
20260830203004 73 45 0.0 12.0 0.00 0.00 0.00 75 1018.6
20260830202817 73 281 2.0 12.0 0.00 0.00 0.00 74 1018.6
20260830202307 74 326 2.0 13.0 0.00 0.00 0.00 74 1018.5
20260830201501 74 111 2.0 13.0 0.00 0.00 0.00 73 1018.4
20260830201003 74 75 2.0 6.0 0.00 0.00 0.00 73 1018.2
20260830200500 75 259 0.0 6.0 0.00 0.00 0.00 73 1018.2
20260830200001 75 314 1.0 6.0 0.00 0.00 0.00 73 1018.1
20260830195500 75 305 3.0 13.0 0.00 0.00 0.00 72 1017.9
20260830195015 75 293 3.0 13.0 0.00 0.00 0.00 72 1017.9
20260830194504 76 292 2.0 10.0 0.00 0.00 0.00 71 1017.8
20260830194003 76 276 1.0 7.0 0.00 0.00 0.00 70 1017.8
20260830193502 77 288 1.0 12.0 0.00 0.00 0.00 69 1017.6
20260830193002 77 279 4.0 12.0 0.00 0.00 0.00 67 1017.4
20260830192503 78 286 2.0 10.0 0.00 0.00 0.00 64 1017.2
20260830192001 78 303 2.0 5.0 0.00 0.00 0.00 60 1017.0
20260830191810 78 312 1.0 4.0 0.00 0.00 0.00 60 1016.9
20260830191331 79 279 1.0 4.0 0.00 0.00 0.00 59 1016.7
20260830190810 79 295 2.0 4.0 0.00 0.00 0.00 59 1016.6
20260830190003 79 269 1.0 4.0 0.00 0.00 0.00 58 1016.4
20260830185501 79 290 1.0 4.0 0.00 0.00 0.00 58 1016.4
20260830185001 79 309 1.0 4.0 0.00 0.00 0.00 57 1016.2
20260830184812 80 275 1.0 5.0 0.00 0.00 0.00 57 1016.2
20260830184001 80 295 1.0 5.0 0.00 0.00 0.00 57 1016.0
20260830183813 80 268 2.0 6.0 0.00 0.00 0.00 56 1016.0
20260830183001 80 323 3.0 10.0 0.00 0.00 0.00 56 1016.0
20260830182459 80 51 2.0 10.0 0.00 0.00 0.00 55 1015.7
20260830182005 80 295 4.0 9.0 0.00 0.00 0.00 55 1015.8
20260830181502 81 316 3.0 7.0 0.00 0.00 0.00 54 1015.7
20260830180959 81 285 2.0 6.0 0.00 0.00 0.00 54 1015.6
20260830180500 82 286 1.0 6.0 0.00 0.00 0.00 53 1015.6
20260830180000 82 302 2.0 6.0 0.00 0.00 0.00 52 1015.4
20260830175503 83 316 2.0 6.0 0.00 0.00 0.00 51 1015.3
20260830175000 83 293 2.0 5.0 0.00 0.00 0.00 49 1015.2
20260830174501 83 312 2.0 10.0 0.00 0.00 0.00 48 1015.1
20260830174000 84 276 3.0 10.0 0.00 0.00 0.00 47 1015.1
20260830173502 84 279 2.0 6.0 0.00 0.00 0.00 47 1015.1
20260830172959 84 298 1.0 5.0 0.00 0.00 0.00 46 1014.9
20260830172501 85 309 1.0 5.0 0.00 0.00 0.00 46 1014.9
20260830172000 85 278 2.0 9.0 0.00 0.00 0.00 45 1014.8
20260830171459 85 310 0.0 9.0 0.00 0.00 0.00 46 1014.7
20260830171305 85 276 1.0 5.0 0.00 0.00 0.00 46 1014.7
20260830170459 85 299 2.0 7.0 0.00 0.00 0.00 46 1014.6
20260830165959 86 282 0.0 7.0 0.00 0.00 0.00 46 1014.6
20260830165458 86 314 3.0 5.0 0.00 0.00 0.00 43 1014.6
20260830164957 86 293 1.0 3.0 0.00 0.00 0.00 43 1014.4
20260830164459 86 307 0.0 6.0 0.00 0.00 0.00 43 1014.4
20260830163957 86 258 1.0 6.0 0.00 0.00 0.00 43 1014.4
20260830163457 86 296 1.0 5.0 0.00 0.00 0.00 44 1014.4
20260830162958 86 290 1.0 7.0 0.00 0.00 0.00 43 1014.3
20260830162458 87 275 3.0 7.0 0.00 0.00 0.00 43 1014.3
20260830161957 87 306 3.0 6.0 0.00 0.00 0.00 43 1014.2
20260830161809 87 295 1.0 5.0 0.00 0.00 0.00 43 1014.3
20260830160958 87 300 2.0 5.0 0.00 0.00 0.00 43 1014.3
20260830160457 87 59 0.0 2.0 0.00 0.00 0.00 41 1014.3
20260830155957 87 82 0.0 4.0 0.00 0.00 0.00 42 1014.2
20260830155805 87 288 0.0 4.0 0.00 0.00 0.00 42 1014.2
20260830154957 87 275 0.0 4.0 0.00 0.00 0.00 42 1014.1
20260830154933 88 28 0.0 3.0 0.00 0.00 0.00 42 1014.2
20260830154927 87 262 0.0 1.0 0.00 0.00 0.00 41 1014.1
20260830153457 88 118 1.0 3.0 0.00 0.00 0.00 40 1014.2
20260830152958 88 86 0.0 3.0 0.00 0.00 0.00 40 1014.2
20260830152457 88 316 1.0 5.0 0.00 0.00 0.00 41 1014.0
20260830152009 89 72 0.0 5.0 0.00 0.00 0.00 39 1014.2
20260830151456 89 117 0.0 4.0 0.00 0.00 0.00 40 1014.1
20260830150956 88 94 0.0 4.0 0.00 0.00 0.00 41 1014.1
20260830150456 88 100 2.0 4.0 0.00 0.00 0.00 40 1014.1
20260830145955 89 110 2.0 4.0 0.00 0.00 0.00 41 1014.2
20260830145807 89 69 0.0 2.0 0.00 0.00 0.00 39 1014.2
20260830144954 89 86 0.0 5.0 0.00 0.00 0.00 41 1014.1
20260830144456 89 85 1.0 5.0 0.00 0.00 0.00 40 1014.2
20260830144307 89 131 2.0 5.0 0.00 0.00 0.00 40 1014.2
20260830143455 88 310 0.0 3.0 0.00 0.00 0.00 44 1014.2
20260830142955 88 310 2.0 3.0 0.00 0.00 0.00 41 1014.3
20260830142454 89 37 0.0 4.0 0.00 0.00 0.00 43 1014.3
20260830141954 88 44 1.0 5.0 0.00 0.00 0.00 42 1014.3
20260830141454 89 96 2.0 5.0 0.00 0.00 0.00 41 1014.3
20260830140955 89 109 0.0 2.0 0.00 0.00 0.00 42 1014.4
20260830140808 89 56 0.0 0.0 0.00 0.00 0.00 43 1014.4
20260830135956 89 56 0.0 3.0 0.00 0.00 0.00 44 1014.5
20260830135454 88 16 0.0 3.0 0.00 0.00 0.00 44 1014.6
20260830134954 88 323 1.0 3.0 0.00 0.00 0.00 44 1014.6
20260830134454 87 82 0.0 6.0 0.00 0.00 0.00 46 1014.6
20260830134301 87 127 0.0 6.0 0.00 0.00 0.00 45 1014.6